This demonstration page uses our WeatherBlox Daily Observations layout. Learn more.

36.17497, -115.13722

Hourly Observations for November 29, 2020

Temp ( °F °C ) Dew Point ( °F °C ) Humidity (%) Winds ( mph kmh ) Pressure ( in mb ) Visibility ( mi km ) Precip ( " mm )
12:53 am 00:53 Clear 43 6.1 16 -8.9 34 34 WNW 3 6 30.23 1024 10 16.0934 0 0
1:53 am 01:53 Clear 44 6.7 13 -10.6 28 28 WNW 3 6 30.25 1024 10 16.0934 0 0
2:53 am 02:53 Clear 45 7.2 12 -11.1 26 26 NW 5 7 30.25 1024 10 16.0934 0 0
3:53 am 03:53 Clear 42 5.6 14 -10 32 32 Calm 30.26 1025 10 16.0934 0 0
4:53 am 04:53 Clear 39 3.9 15 -9.4 38 38 WNW 3 6 30.27 1025 10 16.0934 0 0
5:53 am 05:53 Clear 37 2.8 15 -9.4 41 41 WNW 5 7 30.29 1026 10 16.0934 0 0
6:53 am 06:53 Sunny 41 5 17 -8.3 38 38 NW 3 6 30.31 1026 10 16.0934 0 0
7:53 am 07:53 Sunny 43 6.1 17 -8.3 35 35 Calm 30.33 1027 10 16.0934 0 0
8:53 am 08:53 Sunny 54 12.2 15 -9.4 21 21 NNW 6 9 30.32 1027 10 16.0934 0 0
9:53 am 09:53 Sunny 56 13.3 16 -8.9 21 21 SE 3 6 30.33 1027 10 16.0934 0 0
10:53 am 10:53 Sunny 58 14.4 16 -8.9 19 19 Calm 30.3 1026 10 16.0934 0 0
11:53 am 11:53 Sunny 62 16.7 16 -8.9 17 17 Calm 30.27 1025 10 16.0934 0 0
12:53 pm 12:53 Sunny 64 17.8 16 -8.9 15 15 Calm 30.23 1024 10 16.0934 0 0
1:53 pm 13:53 Sunny 65 18.3 16 -8.9 15 15 Calm 30.22 1023 10 16.0934 0 0
2:53 pm 14:53 Sunny 65 18.3 16 -8.9 15 15 S 3 6 30.21 1023 10 16.0934 0 0
3:53 pm 15:53 Sunny 65 18.3 17 -8.3 16 16 Calm 30.21 1023 10 16.0934 0 0
4:53 pm 16:53 Clear 61 16.1 18 -7.8 19 19 WSW 5 7 30.23 1024 10 16.0934 0 0
5:53 pm 17:53 Clear 57 13.9 21 -6.1 25 25 W 5 7 30.25 1024 10 16.0934 0 0
6:53 pm 18:53 Clear 53 11.7 18 -7.8 25 25 WNW 6 9 30.25 1025 10 16.0934 0 0
7:53 pm 19:53 Clear 51 10.6 19 -7.2 28 28 WNW 6 9 30.25 1025 10 16.0934 0 0
8:53 pm 20:53 Clear 50 10 18 -7.8 28 28 WNW 9 15 30.25 1024 10 16.0934 0 0
9:53 pm 21:53 Clear 48 8.9 19 -7.2 32 32 W 8 13 30.27 1025 10 16.0934 0 0
10:53 pm 22:53 Clear 47 8.3 19 -7.2 33 33 W 8 13 30.27 1025 10 16.0934 0 0
11:53 pm 23:53 Clear 44 6.7 19 -7.2 37 37 NW 3 6 30.29 1026 10 16.0934 0 0

Powered by AerisWeather